Weather History for KRIV - March, 2014

Change the Weather History Date:

Saturday, March 8, 2014

  Actual Average Record
Temperature  
Mean Temperature 64 °F -  
Max Temperature 78 °F 67 °F 87 °F (2004)
Min Temperature 51 °F 41 °F 28 °F (2012)
Growing Degree Days 14 (Base 50)    
Moisture  
Dew Point 25 °F    
Average Humidity 23    
Maximum Humidity 44    
Minimum Humidity 13    
Precipitation  
Precipitation 0.00 in - - ()
Sea Level Pressure  
Sea Level Pressure 30.07 in    
Wind  
Wind Speed 6 mph (North)    
Max Wind Speed 20 mph    
Max Gust Speed 29 mph    
Visibility 10 miles    
Events      
Averages and records for this station are not official NWS values.
T = Trace of Precipitation, MM = Missing Value Source: NWS Daily Summary

Daily Weather History Graph

Daily Weather History Graph

Search for Another Location

Airport or City:

Trip Planner

Search our weather history database for the weather conditions in past years. The results will help you decide how hot, cold, wet, or windy it might be!

Date:

Astronomy

Mar. 08, 2014 Rise Set
Actual Time 6:08 AM PST 5:51 PM PST
Civil Twilight 5:43 AM PST 6:16 PM PST
Nautical Twilight 5:14 AM PST 6:45 PM PST
Astronomical Twilight 4:45 AM PST 7:14 PM PST
Moon 11:10 AM PST (3/8) 12:36 AM PST (3/8)
Length of Visible Light 12h 32m
Length of Day
11h 42m
First Quarter, 53% of the Moon is Illuminated
Mar 8
First Quarter
Mar 16
Full
Mar 23
Last Quarter
Mar 30
New
Apr 7
First Quarter

Hourly Weather History & Observations

Time (PST) Temp. Dew Point Humidity Pressure Visibility Wind Dir Wind Speed Gust Speed Precip Events Conditions
12:58 AM 55.0 °F 30.6 °F 39% 29.99 in 10.0 mi NNE 5.8 mph - N/A   Clear
1:58 AM 52.9 °F 30.2 °F 42% 29.99 in 10.0 mi Calm Calm - N/A   Clear
2:58 AM 56.8 °F 28.0 °F 33% 30.00 in 10.0 mi North 10.4 mph - N/A   Clear
3:58 AM 59.9 °F 24.1 °F 25% 30.01 in 10.0 mi North 10.4 mph - N/A   Clear
4:58 AM 55.4 °F 25.2 °F 31% 30.02 in 10.0 mi NW 2.3 mph - N/A   Clear
5:58 AM 51.6 °F 30.2 °F 44% 30.06 in 10.0 mi NW 8.1 mph - N/A   Clear
6:58 AM 56.7 °F 27.5 °F 33% 30.08 in 10.0 mi NNW 8.1 mph - N/A   Clear
7:58 AM 65.7 °F 26.2 °F 23% 30.10 in 10.0 mi NNW 5.8 mph - N/A   Clear
8:58 AM 70.3 °F 25.7 °F 19% 30.11 in 10.0 mi WSW 5.8 mph - N/A   Clear
9:58 AM 70.7 °F 24.6 °F 18% 30.11 in 10.0 mi Variable 2.3 mph - N/A   Clear
10:58 AM 72.7 °F 25.5 °F 17% 30.10 in 10.0 mi NNE 4.6 mph - N/A   Clear
11:58 AM 74.3 °F 24.6 °F 16% 30.09 in 10.0 mi North 8.1 mph - N/A   Clear
12:58 PM 76.5 °F 26.1 °F 16% 30.08 in 10.0 mi Variable 4.6 mph - N/A   Clear
1:58 PM 77.5 °F 25.5 °F 15% 30.07 in 10.0 mi NW 2.3 mph - N/A   Clear
2:58 PM 77.2 °F 26.6 °F 15% 30.06 in 10.0 mi NW 5.8 mph - N/A   Clear
3:58 PM 78.1 °F 25.7 °F 14% 30.06 in 10.0 mi Variable 4.6 mph - N/A   Clear
4:58 PM 76.3 °F 22.5 °F 13% 30.06 in 10.0 mi East 10.4 mph - N/A   Clear
5:58 PM 72.3 °F 21.0 °F 14% 30.06 in 10.0 mi East 9.2 mph - N/A   Clear
6:58 PM 70.3 °F 19.9 °F 15% 30.09 in 10.0 mi NE 4.6 mph - N/A   Clear
7:58 PM 71.2 °F 18.3 °F 13% 30.09 in 10.0 mi ENE 19.6 mph 28.8 mph N/A   Clear
8:58 PM 69.3 °F 20.1 °F 15% 30.12 in 10.0 mi East 9.2 mph - N/A   Clear
9:58 PM 58.1 °F 27.5 °F 31% 30.14 in 10.0 mi NNW 3.5 mph - N/A   Clear
10:58 PM 57.9 °F 28.2 °F 32% 30.15 in 10.0 mi NNW 3.5 mph - N/A   Clear
11:58 PM 59.7 °F 27.9 °F 30% 30.14 in 10.0 mi North 5.8 mph - N/A   Clear